Year,Month,Day,Hour,Minute,Value (Times are PST for temperature in C)
2020,05,03,00,00,6.20
2020,05,03,00,01,6.20
2020,05,03,00,02,6.20
2020,05,03,00,03,6.20
2020,05,03,00,04,6.20
2020,05,03,00,05,6.10
2020,05,03,00,06,6.10
2020,05,03,00,07,6.10
2020,05,03,00,08,6.10
2020,05,03,00,09,6.10
2020,05,03,00,10,6.10
2020,05,03,00,11,6.10
2020,05,03,00,12,6.10
2020,05,03,00,13,6.10
2020,05,03,00,14,6.00
2020,05,03,00,15,6.00
2020,05,03,00,16,6.00
2020,05,03,00,17,6.00
2020,05,03,00,18,6.00
2020,05,03,00,19,5.90
2020,05,03,00,20,5.90
2020,05,03,00,21,5.90
2020,05,03,00,22,5.90
2020,05,03,00,23,5.90
2020,05,03,00,24,5.90
2020,05,03,00,25,5.80
2020,05,03,00,26,5.80
2020,05,03,00,27,5.80
2020,05,03,00,28,5.80
2020,05,03,00,29,5.80
2020,05,03,00,30,5.80
2020,05,03,00,31,5.70
2020,05,03,00,32,5.70
2020,05,03,00,33,5.70
2020,05,03,00,34,5.70
2020,05,03,00,35,5.70
2020,05,03,00,36,5.60
2020,05,03,00,37,5.60
2020,05,03,00,38,5.60
2020,05,03,00,39,5.60
2020,05,03,00,40,5.60
2020,05,03,00,41,5.50
2020,05,03,00,42,5.50
2020,05,03,00,43,5.50
2020,05,03,00,44,5.40
2020,05,03,00,45,5.40
2020,05,03,00,46,5.40
2020,05,03,00,47,5.40
2020,05,03,00,48,5.40
2020,05,03,00,49,5.40
2020,05,03,00,50,5.30
2020,05,03,00,51,5.30
2020,05,03,00,52,5.30
2020,05,03,00,53,5.30
2020,05,03,00,54,5.30
2020,05,03,00,55,5.30
2020,05,03,00,56,5.30
2020,05,03,00,57,5.20
2020,05,03,00,58,5.20
2020,05,03,00,59,5.20
2020,05,03,01,00,5.20
2020,05,03,01,01,5.20
2020,05,03,01,02,5.20
2020,05,03,01,03,5.20
2020,05,03,01,04,5.20
2020,05,03,01,05,5.20
2020,05,03,01,06,5.20
2020,05,03,01,07,5.20
2020,05,03,01,08,5.20
2020,05,03,01,09,5.20
2020,05,03,01,10,5.20
2020,05,03,01,11,5.20
2020,05,03,01,12,5.20
2020,05,03,01,13,5.20
2020,05,03,01,14,5.20
2020,05,03,01,15,5.20
2020,05,03,01,16,5.20
2020,05,03,01,17,5.20
2020,05,03,01,18,5.20
2020,05,03,01,19,5.20
2020,05,03,01,20,5.20
2020,05,03,01,21,5.30
2020,05,03,01,22,5.30
2020,05,03,01,23,5.30
2020,05,03,01,24,5.30
2020,05,03,01,25,5.30
2020,05,03,01,26,5.30
2020,05,03,01,27,5.30
2020,05,03,01,28,5.30
2020,05,03,01,29,5.30
2020,05,03,01,30,5.30
2020,05,03,01,31,5.40
2020,05,03,01,32,5.40
2020,05,03,01,33,5.40
2020,05,03,01,34,5.40
2020,05,03,01,35,5.50
2020,05,03,01,36,5.50
2020,05,03,01,37,5.60
2020,05,03,01,38,5.60
2020,05,03,01,39,5.60
2020,05,03,01,40,5.60
2020,05,03,01,41,5.60
2020,05,03,01,42,5.60
2020,05,03,01,43,5.60
2020,05,03,01,44,5.70
2020,05,03,01,45,5.70
2020,05,03,01,46,5.70
2020,05,03,01,47,5.70
2020,05,03,01,48,5.70
2020,05,03,01,49,5.70
2020,05,03,01,50,5.70
2020,05,03,01,51,5.70
2020,05,03,01,52,5.80
2020,05,03,01,53,5.80
2020,05,03,01,54,5.80
2020,05,03,01,55,5.80
2020,05,03,01,56,5.80
2020,05,03,01,57,5.80
2020,05,03,01,58,5.80
2020,05,03,01,59,5.80
2020,05,03,02,00,5.80
2020,05,03,02,01,5.80
2020,05,03,02,02,5.80
2020,05,03,02,03,5.80
2020,05,03,02,04,5.80
2020,05,03,02,05,5.80
2020,05,03,02,06,5.80
2020,05,03,02,07,5.80
2020,05,03,02,08,5.80
2020,05,03,02,09,5.80
2020,05,03,02,10,5.80
2020,05,03,02,11,5.80
2020,05,03,02,12,5.80
2020,05,03,02,13,5.80
2020,05,03,02,14,5.80
2020,05,03,02,15,5.80
2020,05,03,02,16,5.80
2020,05,03,02,17,5.80
2020,05,03,02,18,5.80
2020,05,03,02,19,5.80
2020,05,03,02,20,5.80
2020,05,03,02,21,5.80
2020,05,03,02,22,5.80
2020,05,03,02,23,5.80
2020,05,03,02,24,5.80
2020,05,03,02,25,5.80
2020,05,03,02,26,5.80
2020,05,03,02,27,5.80
2020,05,03,02,28,5.80
2020,05,03,02,29,5.80
2020,05,03,02,30,5.80
2020,05,03,02,31,5.80
2020,05,03,02,32,5.90
2020,05,03,02,33,5.90
2020,05,03,02,34,5.90
2020,05,03,02,35,5.90
2020,05,03,02,36,5.90
2020,05,03,02,37,5.90
2020,05,03,02,38,5.90
2020,05,03,02,39,5.90
2020,05,03,02,40,5.80
2020,05,03,02,41,5.90
2020,05,03,02,42,5.80
2020,05,03,02,43,5.80
2020,05,03,02,44,5.80
2020,05,03,02,45,5.80
2020,05,03,02,46,5.90
2020,05,03,02,47,5.90
2020,05,03,02,48,5.90
2020,05,03,02,49,5.90
2020,05,03,02,50,5.90
2020,05,03,02,51,5.90
2020,05,03,02,52,5.90
2020,05,03,02,53,5.90
2020,05,03,02,54,5.90
2020,05,03,02,55,5.90
2020,05,03,02,56,5.90
2020,05,03,02,57,5.90
2020,05,03,02,58,5.90
2020,05,03,02,59,5.90
2020,05,03,03,00,5.90
2020,05,03,03,01,5.90
2020,05,03,03,02,5.90
2020,05,03,03,03,5.90
2020,05,03,03,04,5.90
2020,05,03,03,05,6.00
2020,05,03,03,06,6.00
2020,05,03,03,07,6.00
2020,05,03,03,08,6.00
2020,05,03,03,09,6.00
2020,05,03,03,10,5.90
2020,05,03,03,11,5.90
2020,05,03,03,12,5.90
2020,05,03,03,13,5.90
2020,05,03,03,14,5.90
2020,05,03,03,15,5.90
2020,05,03,03,16,5.90
2020,05,03,03,17,5.90
2020,05,03,03,18,5.80
2020,05,03,03,19,5.80
2020,05,03,03,20,5.80
2020,05,03,03,21,5.80
2020,05,03,03,22,5.80
2020,05,03,03,23,5.80
2020,05,03,03,24,5.70
2020,05,03,03,25,5.70
2020,05,03,03,26,5.70
2020,05,03,03,27,5.70
2020,05,03,03,28,5.70
2020,05,03,03,29,5.70
2020,05,03,03,30,5.60
2020,05,03,03,31,5.60
2020,05,03,03,32,5.60
2020,05,03,03,33,5.60
2020,05,03,03,34,5.60
2020,05,03,03,35,5.60
2020,05,03,03,36,5.60
2020,05,03,03,37,5.60
2020,05,03,03,38,5.50
2020,05,03,03,39,5.50
2020,05,03,03,40,5.50
2020,05,03,03,41,5.50
2020,05,03,03,42,5.50
2020,05,03,03,43,5.50
2020,05,03,03,44,5.50
2020,05,03,03,45,5.50
2020,05,03,03,46,5.50
2020,05,03,03,47,5.50
2020,05,03,03,48,5.60
2020,05,03,03,49,5.60
2020,05,03,03,50,5.60
2020,05,03,03,51,5.60
2020,05,03,03,52,5.60
2020,05,03,03,53,5.60
2020,05,03,03,54,5.60
2020,05,03,03,55,5.60
2020,05,03,03,56,5.60
2020,05,03,03,57,5.60
2020,05,03,03,58,5.60
2020,05,03,03,59,5.60
2020,05,03,04,00,5.60
2020,05,03,04,01,5.60
2020,05,03,04,02,5.60
2020,05,03,04,03,5.60
2020,05,03,04,04,5.60
2020,05,03,04,05,5.60
2020,05,03,04,06,5.60
2020,05,03,04,07,5.50
2020,05,03,04,08,5.50
2020,05,03,04,09,5.50
2020,05,03,04,10,5.50
2020,05,03,04,11,5.50
2020,05,03,04,12,5.50
2020,05,03,04,13,5.50
2020,05,03,04,14,5.50
2020,05,03,04,15,5.50
2020,05,03,04,16,5.50
2020,05,03,04,17,5.50
2020,05,03,04,18,5.50
2020,05,03,04,19,5.50
2020,05,03,04,20,5.50
2020,05,03,04,21,5.50
2020,05,03,04,22,5.50
2020,05,03,04,23,5.60
2020,05,03,04,24,5.60
2020,05,03,04,25,5.60
2020,05,03,04,26,5.60
2020,05,03,04,27,5.60
2020,05,03,04,28,5.60
2020,05,03,04,29,5.50
2020,05,03,04,30,5.50
2020,05,03,04,31,5.50
2020,05,03,04,32,5.50
2020,05,03,04,33,5.50
2020,05,03,04,34,5.50
2020,05,03,04,35,5.40
2020,05,03,04,36,5.40
2020,05,03,04,37,5.40
2020,05,03,04,38,5.40
2020,05,03,04,39,5.40
2020,05,03,04,40,5.40
2020,05,03,04,41,5.40
2020,05,03,04,42,5.40
2020,05,03,04,43,5.40
2020,05,03,04,44,5.30
2020,05,03,04,45,5.30
2020,05,03,04,46,5.30
2020,05,03,04,47,5.30
2020,05,03,04,48,5.30
2020,05,03,04,49,5.30
2020,05,03,04,50,5.30
2020,05,03,04,51,5.30
2020,05,03,04,52,5.30
2020,05,03,04,53,5.30
2020,05,03,04,54,5.30
2020,05,03,04,55,5.30
2020,05,03,04,56,5.30
2020,05,03,04,57,5.30
2020,05,03,04,58,5.30
2020,05,03,04,59,5.30
2020,05,03,05,00,5.30
2020,05,03,05,01,5.30
2020,05,03,05,02,5.30
2020,05,03,05,03,5.30
2020,05,03,05,04,5.30
2020,05,03,05,05,5.20
2020,05,03,05,06,5.20
2020,05,03,05,07,5.20
2020,05,03,05,08,5.20
2020,05,03,05,09,5.20
2020,05,03,05,10,5.30
2020,05,03,05,11,5.20
2020,05,03,05,12,5.30
2020,05,03,05,13,5.30
2020,05,03,05,14,5.30
2020,05,03,05,15,5.30
2020,05,03,05,16,5.30
2020,05,03,05,17,5.30
2020,05,03,05,18,5.30
2020,05,03,05,19,5.30
2020,05,03,05,20,5.30
2020,05,03,05,21,5.30
2020,05,03,05,22,5.30
2020,05,03,05,23,5.30
2020,05,03,05,24,5.30
2020,05,03,05,25,5.40
2020,05,03,05,26,5.40
2020,05,03,05,27,5.40
2020,05,03,05,28,5.40
2020,05,03,05,29,5.50
2020,05,03,05,30,5.50
2020,05,03,05,31,5.50
2020,05,03,05,32,5.50
2020,05,03,05,33,5.50
2020,05,03,05,34,5.50
2020,05,03,05,35,5.50
2020,05,03,05,36,5.50
2020,05,03,05,37,5.50
2020,05,03,05,38,5.50
2020,05,03,05,39,5.50
2020,05,03,05,40,5.50
2020,05,03,05,41,5.50
2020,05,03,05,42,5.50
2020,05,03,05,43,5.50
2020,05,03,05,44,5.50
2020,05,03,05,45,5.50
2020,05,03,05,46,5.50
2020,05,03,05,47,5.60
2020,05,03,05,48,5.60
2020,05,03,05,49,5.60
2020,05,03,05,50,5.60
2020,05,03,05,51,5.60
2020,05,03,05,52,5.60
2020,05,03,05,53,5.60
2020,05,03,05,54,5.60
2020,05,03,05,55,5.60
2020,05,03,05,56,5.60
2020,05,03,05,57,5.60
2020,05,03,05,58,5.60
2020,05,03,05,59,5.60
2020,05,03,06,00,5.70
2020,05,03,06,01,5.70
2020,05,03,06,02,5.70
2020,05,03,06,03,5.80
2020,05,03,06,04,5.80
2020,05,03,06,05,5.80
2020,05,03,06,06,5.80
2020,05,03,06,07,5.80
2020,05,03,06,08,5.80
2020,05,03,06,09,5.80
2020,05,03,06,10,5.80
2020,05,03,06,11,5.90
2020,05,03,06,12,5.90
2020,05,03,06,13,5.90
2020,05,03,06,14,5.90
2020,05,03,06,15,6.00
2020,05,03,06,16,6.00
2020,05,03,06,17,6.10
2020,05,03,06,18,6.10
2020,05,03,06,19,6.20
2020,05,03,06,20,6.30
2020,05,03,06,21,6.30
2020,05,03,06,22,6.40
2020,05,03,06,23,6.40
2020,05,03,06,24,6.50
2020,05,03,06,25,6.50
2020,05,03,06,26,6.60
2020,05,03,06,27,6.70
2020,05,03,06,28,6.70
2020,05,03,06,29,6.80
2020,05,03,06,30,6.90
2020,05,03,06,31,6.90
2020,05,03,06,32,7.00
2020,05,03,06,33,7.10
2020,05,03,06,34,7.20
2020,05,03,06,35,7.20
2020,05,03,06,36,7.30
2020,05,03,06,37,7.30
2020,05,03,06,38,7.40
2020,05,03,06,39,7.40
2020,05,03,06,40,7.50
2020,05,03,06,41,7.50
2020,05,03,06,42,7.50
2020,05,03,06,43,7.60
2020,05,03,06,44,7.50
2020,05,03,06,45,7.50
2020,05,03,06,46,7.50
2020,05,03,06,47,7.50
2020,05,03,06,48,7.50
2020,05,03,06,49,7.50
2020,05,03,06,50,7.40
2020,05,03,06,51,7.40
2020,05,03,06,52,7.40
2020,05,03,06,53,7.40
2020,05,03,06,54,7.40
2020,05,03,06,55,7.40
2020,05,03,06,56,7.40
2020,05,03,06,57,7.30
2020,05,03,06,58,7.30
2020,05,03,06,59,7.30
2020,05,03,07,00,7.30
2020,05,03,07,01,7.30
2020,05,03,07,02,7.30
2020,05,03,07,03,7.30
2020,05,03,07,04,7.20
2020,05,03,07,05,7.20
2020,05,03,07,06,7.20
2020,05,03,07,07,7.20
2020,05,03,07,08,7.20
2020,05,03,07,09,7.20
2020,05,03,07,10,7.10
2020,05,03,07,11,7.10
2020,05,03,07,12,7.10
2020,05,03,07,13,7.10
2020,05,03,07,14,7.10
2020,05,03,07,15,7.10
2020,05,03,07,16,7.10
2020,05,03,07,17,7.00
2020,05,03,07,18,7.00
2020,05,03,07,19,7.00
2020,05,03,07,20,7.00
2020,05,03,07,21,7.00
2020,05,03,07,22,7.00
2020,05,03,07,23,7.00
2020,05,03,07,24,7.00
2020,05,03,07,25,7.00
2020,05,03,07,26,6.90
2020,05,03,07,27,6.90
2020,05,03,07,28,6.90
2020,05,03,07,29,6.90
2020,05,03,07,30,6.90
2020,05,03,07,31,6.90
2020,05,03,07,32,6.90
2020,05,03,07,33,6.90
2020,05,03,07,34,6.90
2020,05,03,07,35,6.90
2020,05,03,07,36,6.90
2020,05,03,07,37,6.90
2020,05,03,07,38,6.90
2020,05,03,07,39,6.90
2020,05,03,07,40,6.90
2020,05,03,07,41,6.90
2020,05,03,07,42,7.00
2020,05,03,07,43,7.00
2020,05,03,07,44,7.00
2020,05,03,07,45,7.00
2020,05,03,07,46,7.00
2020,05,03,07,47,7.00
2020,05,03,07,48,7.00
2020,05,03,07,49,7.00
2020,05,03,07,50,7.00
2020,05,03,07,51,7.00
2020,05,03,07,52,7.00
2020,05,03,07,53,7.00
2020,05,03,07,54,6.90
2020,05,03,07,55,6.90
2020,05,03,07,56,6.90
2020,05,03,07,57,7.00
2020,05,03,07,58,7.00
2020,05,03,07,59,7.00
2020,05,03,08,00,7.00
2020,05,03,08,01,7.00
2020,05,03,08,02,7.00
2020,05,03,08,03,7.00
2020,05,03,08,04,7.00
2020,05,03,08,05,7.10
2020,05,03,08,06,7.10
2020,05,03,08,07,7.10
2020,05,03,08,08,7.10
2020,05,03,08,09,7.10
2020,05,03,08,10,7.10
2020,05,03,08,11,7.20
2020,05,03,08,12,7.20
2020,05,03,08,13,7.30
2020,05,03,08,14,7.40
2020,05,03,08,15,7.50
2020,05,03,08,16,7.60
2020,05,03,08,17,7.70
2020,05,03,08,18,7.80
2020,05,03,08,19,7.90
2020,05,03,08,20,8.10
2020,05,03,08,21,8.30
2020,05,03,08,22,8.40
2020,05,03,08,23,8.50
2020,05,03,08,24,8.60
2020,05,03,08,25,8.70
2020,05,03,08,26,8.80
2020,05,03,08,27,9.00
2020,05,03,08,28,9.10
2020,05,03,08,29,9.20
2020,05,03,08,30,9.20
2020,05,03,08,31,9.30
2020,05,03,08,32,9.30
2020,05,03,08,33,9.40
2020,05,03,08,34,9.40
2020,05,03,08,35,9.40
2020,05,03,08,36,9.40
2020,05,03,08,37,9.50
2020,05,03,08,38,9.50
2020,05,03,08,39,9.50
2020,05,03,08,40,9.40
2020,05,03,08,41,9.40
2020,05,03,08,42,9.40
2020,05,03,08,43,9.40
2020,05,03,08,44,9.40
2020,05,03,08,45,9.30
2020,05,03,08,46,9.40
2020,05,03,08,47,9.40
2020,05,03,08,48,9.40
2020,05,03,08,49,9.50
2020,05,03,08,50,9.60
2020,05,03,08,51,9.60
2020,05,03,08,52,9.60
2020,05,03,08,53,9.60
2020,05,03,08,54,9.60
2020,05,03,08,55,9.70
2020,05,03,08,56,9.70
2020,05,03,08,57,9.70
2020,05,03,08,58,9.80
2020,05,03,08,59,9.80
2020,05,03,09,00,9.80
2020,05,03,09,01,9.90
2020,05,03,09,02,9.90
2020,05,03,09,03,10.00
2020,05,03,09,04,10.10
2020,05,03,09,05,10.20
2020,05,03,09,06,10.20
2020,05,03,09,07,10.30
2020,05,03,09,08,10.30
2020,05,03,09,09,10.30
2020,05,03,09,10,10.40
2020,05,03,09,11,10.50
2020,05,03,09,12,10.50
2020,05,03,09,13,10.60
2020,05,03,09,14,10.60
2020,05,03,09,15,10.70
2020,05,03,09,16,10.70
2020,05,03,09,17,10.80
2020,05,03,09,18,10.80
2020,05,03,09,19,10.90
2020,05,03,09,20,10.90
2020,05,03,09,21,10.90
2020,05,03,09,22,10.90
2020,05,03,09,23,10.80
2020,05,03,09,24,10.80
2020,05,03,09,25,10.70
2020,05,03,09,26,10.70
2020,05,03,09,27,10.70
2020,05,03,09,28,10.60
2020,05,03,09,29,10.60
2020,05,03,09,30,10.60
2020,05,03,09,31,10.60
2020,05,03,09,32,10.60
2020,05,03,09,33,10.60
2020,05,03,09,34,10.60
2020,05,03,09,35,10.60
2020,05,03,09,36,10.50
2020,05,03,09,37,10.50
2020,05,03,09,38,10.40
2020,05,03,09,39,10.40
2020,05,03,09,40,10.30
2020,05,03,09,41,10.30
2020,05,03,09,42,10.20
2020,05,03,09,43,10.10
2020,05,03,09,44,10.10
2020,05,03,09,45,10.10
2020,05,03,09,46,10.10
2020,05,03,09,47,10.10
2020,05,03,09,48,10.10
2020,05,03,09,49,10.20
2020,05,03,09,50,10.30
2020,05,03,09,51,10.40
2020,05,03,09,52,10.50
2020,05,03,09,53,10.70
2020,05,03,09,54,10.80
2020,05,03,09,55,10.80
2020,05,03,09,56,10.80
2020,05,03,09,57,10.80
2020,05,03,09,58,10.70
2020,05,03,09,59,10.70
2020,05,03,10,00,10.70
2020,05,03,10,01,10.70
2020,05,03,10,02,10.60
2020,05,03,10,03,10.50
2020,05,03,10,04,10.50
2020,05,03,10,05,10.40
2020,05,03,10,06,10.40
2020,05,03,10,07,10.30
2020,05,03,10,08,10.20
2020,05,03,10,09,10.20
2020,05,03,10,10,10.10
2020,05,03,10,11,10.10
2020,05,03,10,12,10.10
2020,05,03,10,13,10.10
2020,05,03,10,14,10.10
2020,05,03,10,15,10.20
2020,05,03,10,16,10.30
2020,05,03,10,17,10.40
2020,05,03,10,18,10.50
2020,05,03,10,19,10.70
2020,05,03,10,20,10.70
2020,05,03,10,21,10.80
2020,05,03,10,22,10.80
2020,05,03,10,23,10.80
2020,05,03,10,24,10.80
2020,05,03,10,25,10.90
2020,05,03,10,26,10.90
2020,05,03,10,27,10.90
2020,05,03,10,28,10.90
2020,05,03,10,29,10.90
2020,05,03,10,30,10.90
2020,05,03,10,31,10.90
2020,05,03,10,32,10.80
2020,05,03,10,33,10.80
2020,05,03,10,34,10.80
2020,05,03,10,35,10.80
2020,05,03,10,36,10.90
2020,05,03,10,37,10.90
2020,05,03,10,38,11.00
2020,05,03,10,39,11.20
2020,05,03,10,40,11.30
2020,05,03,10,41,11.40
2020,05,03,10,42,11.50
2020,05,03,10,43,11.60
2020,05,03,10,44,11.70
2020,05,03,10,45,11.80
2020,05,03,10,46,11.90
2020,05,03,10,47,12.00
2020,05,03,10,48,12.10
2020,05,03,10,49,12.10
2020,05,03,10,50,12.20
2020,05,03,10,51,12.20
2020,05,03,10,52,12.30
2020,05,03,10,53,12.20
2020,05,03,10,54,12.20
2020,05,03,10,55,12.30
2020,05,03,10,56,12.20
2020,05,03,10,57,12.30
2020,05,03,10,58,12.30
2020,05,03,10,59,12.40
2020,05,03,11,00,12.40
2020,05,03,11,01,12.40
2020,05,03,11,02,12.50
2020,05,03,11,03,12.50
2020,05,03,11,04,12.40
2020,05,03,11,05,12.40
2020,05,03,11,06,12.40
2020,05,03,11,07,12.30
2020,05,03,11,08,12.30
2020,05,03,11,09,12.30
2020,05,03,11,10,12.30
2020,05,03,11,11,12.30
2020,05,03,11,12,12.30
2020,05,03,11,13,12.30
2020,05,03,11,14,12.30
2020,05,03,11,15,12.30
2020,05,03,11,16,12.40
2020,05,03,11,17,12.40
2020,05,03,11,18,12.40
2020,05,03,11,19,12.50
2020,05,03,11,20,12.50
2020,05,03,11,21,12.50
2020,05,03,11,22,12.50
2020,05,03,11,23,12.50
2020,05,03,11,24,12.40
2020,05,03,11,25,12.50
2020,05,03,11,26,12.60
2020,05,03,11,27,12.60
2020,05,03,11,28,12.60
2020,05,03,11,29,12.60
2020,05,03,11,30,12.60
2020,05,03,11,31,12.60
2020,05,03,11,32,12.60
2020,05,03,11,33,12.60
2020,05,03,11,34,12.60
2020,05,03,11,35,12.50
2020,05,03,11,36,12.60
2020,05,03,11,37,12.60
2020,05,03,11,38,12.60
2020,05,03,11,39,12.70
2020,05,03,11,40,12.70
2020,05,03,11,41,12.70
2020,05,03,11,42,12.70
2020,05,03,11,43,12.70
2020,05,03,11,44,12.70
2020,05,03,11,45,12.70
2020,05,03,11,46,12.70
2020,05,03,11,47,12.60
2020,05,03,11,48,12.60
2020,05,03,11,49,12.70
2020,05,03,11,50,12.70
2020,05,03,11,51,12.60
2020,05,03,11,52,12.60
2020,05,03,11,53,12.60
2020,05,03,11,54,12.50
2020,05,03,11,55,12.50
2020,05,03,11,56,12.40
2020,05,03,11,57,12.40
2020,05,03,11,58,12.40
2020,05,03,11,59,12.40
2020,05,03,12,00,12.40
2020,05,03,12,01,12.30
2020,05,03,12,02,12.30
2020,05,03,12,03,12.20
2020,05,03,12,04,12.10
2020,05,03,12,05,12.10
2020,05,03,12,06,12.10
2020,05,03,12,07,12.00
2020,05,03,12,08,12.00
2020,05,03,12,09,12.00
2020,05,03,12,10,11.90
2020,05,03,12,11,11.80
2020,05,03,12,12,11.80
2020,05,03,12,13,11.80
2020,05,03,12,14,11.70
2020,05,03,12,15,11.70
2020,05,03,12,16,11.60
2020,05,03,12,17,11.60
2020,05,03,12,18,11.50
2020,05,03,12,19,11.40
2020,05,03,12,20,11.30
2020,05,03,12,21,11.20
2020,05,03,12,22,11.20
2020,05,03,12,23,11.00
2020,05,03,12,24,11.00
2020,05,03,12,25,10.90
2020,05,03,12,26,10.80
2020,05,03,12,27,10.70
2020,05,03,12,28,10.50
2020,05,03,12,29,10.40
2020,05,03,12,30,10.30
2020,05,03,12,31,10.10
2020,05,03,12,32,10.00
2020,05,03,12,33,10.00
2020,05,03,12,34,9.90
2020,05,03,12,35,9.80
2020,05,03,12,36,9.70
2020,05,03,12,37,9.60
2020,05,03,12,38,9.50
2020,05,03,12,39,9.40
2020,05,03,12,40,9.30
2020,05,03,12,41,9.20
2020,05,03,12,42,9.20
2020,05,03,12,43,9.10
2020,05,03,12,44,9.10
2020,05,03,12,45,9.00
2020,05,03,12,46,8.90
2020,05,03,12,47,8.90
2020,05,03,12,48,8.90
2020,05,03,12,49,8.90
2020,05,03,12,50,9.00
2020,05,03,12,51,9.00
2020,05,03,12,52,9.10
2020,05,03,12,53,9.20
2020,05,03,12,54,9.20
2020,05,03,12,55,9.30
2020,05,03,12,56,9.40
2020,05,03,12,57,9.50
2020,05,03,12,58,9.60
2020,05,03,12,59,9.70
2020,05,03,13,00,9.80
2020,05,03,13,01,9.90
2020,05,03,13,02,10.00
2020,05,03,13,03,10.10
2020,05,03,13,04,10.20
2020,05,03,13,05,10.30
2020,05,03,13,06,10.40
2020,05,03,13,07,10.60
2020,05,03,13,08,10.80
2020,05,03,13,09,10.90
2020,05,03,13,10,11.10
2020,05,03,13,11,11.20
2020,05,03,13,12,11.30
2020,05,03,13,13,11.40
2020,05,03,13,14,11.50
2020,05,03,13,15,11.50
2020,05,03,13,16,11.60
2020,05,03,13,17,11.60
2020,05,03,13,18,11.70
2020,05,03,13,19,11.80
2020,05,03,13,20,11.90
2020,05,03,13,21,12.00
2020,05,03,13,22,12.00
2020,05,03,13,23,12.10
2020,05,03,13,24,12.10
2020,05,03,13,25,12.10
2020,05,03,13,26,12.20
2020,05,03,13,27,12.30
2020,05,03,13,28,12.40
2020,05,03,13,29,12.40
2020,05,03,13,30,12.50
2020,05,03,13,31,12.50
2020,05,03,13,32,12.50
2020,05,03,13,33,12.50
2020,05,03,13,34,12.40
2020,05,03,13,35,12.20
2020,05,03,13,36,12.00
2020,05,03,13,37,11.90
2020,05,03,13,38,11.80
2020,05,03,13,39,11.70
2020,05,03,13,40,11.60
2020,05,03,13,41,11.50
2020,05,03,13,42,11.50
2020,05,03,13,43,11.40
2020,05,03,13,44,11.30
2020,05,03,13,45,11.20
2020,05,03,13,46,11.20
2020,05,03,13,47,11.10
2020,05,03,13,48,11.10
2020,05,03,13,49,11.00
2020,05,03,13,50,11.00
2020,05,03,13,51,10.90
2020,05,03,13,52,10.90
2020,05,03,13,53,10.90
2020,05,03,13,54,10.90
2020,05,03,13,55,10.90
2020,05,03,13,56,10.90
2020,05,03,13,57,10.90
2020,05,03,13,58,10.90
2020,05,03,13,59,10.90
2020,05,03,14,00,10.90
2020,05,03,14,01,11.00
2020,05,03,14,02,11.00
2020,05,03,14,03,11.10
2020,05,03,14,04,11.10
2020,05,03,14,05,11.10
2020,05,03,14,06,11.20
2020,05,03,14,07,11.20
2020,05,03,14,08,11.20
2020,05,03,14,09,11.20
2020,05,03,14,10,11.20
2020,05,03,14,11,11.20
2020,05,03,14,12,11.30
2020,05,03,14,13,11.30
2020,05,03,14,14,11.30
2020,05,03,14,15,11.30
2020,05,03,14,16,11.40
2020,05,03,14,17,11.40
2020,05,03,14,18,11.40
2020,05,03,14,19,11.40
2020,05,03,14,20,11.40
2020,05,03,14,21,11.50
2020,05,03,14,22,11.50
2020,05,03,14,23,11.50
2020,05,03,14,24,11.50
2020,05,03,14,25,11.50
2020,05,03,14,26,11.50
2020,05,03,14,27,11.50
2020,05,03,14,28,11.50
2020,05,03,14,29,11.50
2020,05,03,14,30,11.50
2020,05,03,14,31,11.40
2020,05,03,14,32,11.50
2020,05,03,14,33,11.50
2020,05,03,14,34,11.40
2020,05,03,14,35,11.40
2020,05,03,14,36,11.40
2020,05,03,14,37,11.40
2020,05,03,14,38,11.40
2020,05,03,14,39,11.40
2020,05,03,14,40,11.40
2020,05,03,14,41,11.50
2020,05,03,14,42,11.50
2020,05,03,14,43,11.50
2020,05,03,14,44,11.50
2020,05,03,14,45,11.50
2020,05,03,14,46,11.60
2020,05,03,14,47,11.60
2020,05,03,14,48,11.60
2020,05,03,14,49,11.70
2020,05,03,14,50,11.80
2020,05,03,14,51,11.90
2020,05,03,14,52,12.00
2020,05,03,14,53,12.10
2020,05,03,14,54,12.30
2020,05,03,14,55,12.30
2020,05,03,14,56,12.40
2020,05,03,14,57,12.50
2020,05,03,14,58,12.60
2020,05,03,14,59,12.60
2020,05,03,15,00,12.70
2020,05,03,15,01,12.80
2020,05,03,15,02,12.90
2020,05,03,15,03,12.90
2020,05,03,15,04,13.00
2020,05,03,15,05,13.10
2020,05,03,15,06,13.10
2020,05,03,15,07,13.10
2020,05,03,15,08,13.10
2020,05,03,15,09,13.10
2020,05,03,15,10,13.10
2020,05,03,15,11,13.10
2020,05,03,15,12,13.10
2020,05,03,15,13,13.10
2020,05,03,15,14,13.10
2020,05,03,15,15,13.10
2020,05,03,15,16,13.10
2020,05,03,15,17,13.10
2020,05,03,15,18,13.00
2020,05,03,15,19,13.00
2020,05,03,15,20,13.10
2020,05,03,15,21,13.10
2020,05,03,15,22,13.10
2020,05,03,15,23,13.10
2020,05,03,15,24,13.10
2020,05,03,15,25,13.00
2020,05,03,15,26,12.90
2020,05,03,15,27,12.80
2020,05,03,15,28,12.80
2020,05,03,15,29,12.80
2020,05,03,15,30,12.80
2020,05,03,15,31,12.80
2020,05,03,15,32,12.70
2020,05,03,15,33,12.50
2020,05,03,15,34,12.50
2020,05,03,15,35,12.40
2020,05,03,15,36,12.30
2020,05,03,15,37,12.30
2020,05,03,15,38,12.20
2020,05,03,15,39,12.10
2020,05,03,15,40,12.00
2020,05,03,15,41,11.90
2020,05,03,15,42,11.80
2020,05,03,15,43,11.70
2020,05,03,15,44,11.60
2020,05,03,15,45,11.40
2020,05,03,15,46,11.30
2020,05,03,15,47,11.20
2020,05,03,15,48,11.10
2020,05,03,15,49,11.10
2020,05,03,15,50,11.00
2020,05,03,15,51,10.90
2020,05,03,15,52,10.80
2020,05,03,15,53,10.70
2020,05,03,15,54,10.60
2020,05,03,15,55,10.50
2020,05,03,15,56,10.50
2020,05,03,15,57,10.40
2020,05,03,15,58,10.30
2020,05,03,15,59,10.30
2020,05,03,16,00,10.20
2020,05,03,16,01,10.10
2020,05,03,16,02,10.00
2020,05,03,16,03,10.00
2020,05,03,16,04,9.90
2020,05,03,16,05,9.90
2020,05,03,16,06,10.00
2020,05,03,16,07,10.00
2020,05,03,16,08,10.10
2020,05,03,16,09,10.20
2020,05,03,16,10,10.30
2020,05,03,16,11,10.40
2020,05,03,16,12,10.50
2020,05,03,16,13,10.60
2020,05,03,16,14,10.70
2020,05,03,16,15,10.70
2020,05,03,16,16,10.80
2020,05,03,16,17,10.80
2020,05,03,16,18,10.90
2020,05,03,16,19,10.90
2020,05,03,16,20,10.90
2020,05,03,16,21,10.90
2020,05,03,16,22,11.00
2020,05,03,16,23,11.10
2020,05,03,16,24,11.10
2020,05,03,16,25,11.20
2020,05,03,16,26,11.10
2020,05,03,16,27,11.20
2020,05,03,16,28,11.30
2020,05,03,16,29,11.40
2020,05,03,16,30,11.50
2020,05,03,16,31,11.60
2020,05,03,16,32,11.50
2020,05,03,16,33,11.60
2020,05,03,16,34,11.70
2020,05,03,16,35,11.80
2020,05,03,16,36,11.80
2020,05,03,16,37,11.90
2020,05,03,16,38,11.90
2020,05,03,16,39,12.00
2020,05,03,16,40,12.00
2020,05,03,16,41,12.10
2020,05,03,16,42,12.10
2020,05,03,16,43,12.20
2020,05,03,16,44,12.20
2020,05,03,16,45,12.10
2020,05,03,16,46,12.10
2020,05,03,16,47,12.10
2020,05,03,16,48,12.20
2020,05,03,16,49,12.20
2020,05,03,16,50,12.20
2020,05,03,16,51,12.10
2020,05,03,16,52,12.10
2020,05,03,16,53,12.00
2020,05,03,16,54,11.90
2020,05,03,16,55,11.90
2020,05,03,16,56,11.80
2020,05,03,16,57,11.80
2020,05,03,16,58,11.70
2020,05,03,16,59,11.70
2020,05,03,17,00,11.70
2020,05,03,17,01,11.70
2020,05,03,17,02,11.70
2020,05,03,17,03,11.80
2020,05,03,17,04,11.90
2020,05,03,17,05,12.00
2020,05,03,17,06,12.10
2020,05,03,17,07,12.30
2020,05,03,17,08,12.30
2020,05,03,17,09,12.40
2020,05,03,17,10,12.40
2020,05,03,17,11,12.50
2020,05,03,17,12,12.60
2020,05,03,17,13,12.60
2020,05,03,17,14,12.70
2020,05,03,17,15,12.80
2020,05,03,17,16,12.80
2020,05,03,17,17,12.80
2020,05,03,17,18,12.80
2020,05,03,17,19,12.90
2020,05,03,17,20,13.00
2020,05,03,17,21,13.00
2020,05,03,17,22,13.10
2020,05,03,17,23,13.10
2020,05,03,17,24,13.10
2020,05,03,17,25,13.00
2020,05,03,17,26,13.00
2020,05,03,17,27,12.90
2020,05,03,17,28,12.90
2020,05,03,17,29,12.90
2020,05,03,17,30,12.90
2020,05,03,17,31,12.90
2020,05,03,17,32,12.90
2020,05,03,17,33,12.90
2020,05,03,17,34,12.90
2020,05,03,17,35,12.90
2020,05,03,17,36,12.90
2020,05,03,17,37,12.80
2020,05,03,17,38,12.90
2020,05,03,17,39,12.80
2020,05,03,17,40,12.80
2020,05,03,17,41,12.80
2020,05,03,17,42,12.80
2020,05,03,17,43,12.80
2020,05,03,17,44,12.90